Home   Weather   Sacramento   Past weeks
Flag for USA

Past Weather in Sacramento, California, USA — Yesterday and Last 2 Weeks

Now
36 °F

Clear.


Feels Like: 36 °F
Forecast: 33 / 66 °F
Wind: No wind

Location: Sacramento Executive Airport

Current Time: Nov 14, 2018 at 3:23:04 am

Latest Report: Nov 14, 2018 at 2:53 am


Visibility: 3 mi

Pressure: 30.37 "Hg

Humidity: 89%

Dew Point: 33 °F

Location of SacramentoLocation

Past Weather in Sacramento — Graph

°F

Sacramento Temperature Yesterday

Maximum temperature yesterday: 62 °F (at 1:53 pm)
Minimum temperature yesterday: 36 °F (at 6:06 am)
Average temperature yesterday: 47 °F

High & Low Weather Summary for the Past Weeks

 TemperatureHumidityPressure
High83 °F (Nov 1, 3:53 pm)92% (Nov 11, 6:53 am)30.45 "Hg (Nov 11, 6:53 am)
Low31 °F (Nov 11, 6:53 am)10% (Nov 5, 2:53 pm)29.87 "Hg (Nov 5, 4:53 pm)
Average56 °F50%30.10 "Hg
* Reported Oct 30 3:53 am — Nov 14 2:24 am, Sacramento. Weather by CustomWeather, © 2018

Note: Actual official high and low records may vary slightly from our data, if they occured in-between our weather recording intervals... More about our weather records

Advertising

Sacramento Weather History for the Previous 24 Hours

Scroll right to see more
 ConditionsComfort  
Time TempWeatherWind HumidityBarometerVisibility
2:24 am
Wed, Nov 14
36 °FClear.No wind92%30.38 "Hg3 mi
2:12 am38 °FClear.No wind90%30.38 "Hg2 mi
1:53 am38 °FClear.No wind90%30.38 "Hg3 mi
12:53 am37 °FClear.No wind86%30.37 "Hg2 mi
11:53 pm
Tue, Nov 13
38 °FClear.No wind86%30.38 "Hg2 mi
10:53 pm38 °FClear.5 mph83%30.38 "Hg2 mi
9:53 pm41 °FClear.No wind74%30.38 "Hg2 mi
8:53 pm44 °FClear.No wind71%30.37 "Hg2 mi
7:53 pm45 °FClear.5 mph74%30.37 "Hg2 mi
6:53 pm46 °FClear.No wind63%30.37 "Hg2 mi
5:53 pm49 °FClear.No wind59%30.37 "Hg2 mi
5:07 pm54 °FClear.No wind47%30.38 "Hg2 mi
4:53 pm55 °FSunny.No wind44%30.38 "Hg2 mi
3:53 pm61 °FSunny.3 mph30%30.38 "Hg2 mi
3:13 pm62 °FSunny.3 mph27%30.39 "Hg2 mi
2:53 pm62 °FSunny.5 mph27%30.39 "Hg2 mi
1:53 pm62 °FSunny.5 mph29%30.39 "Hg2 mi
12:53 pm61 °FSunny.6 mph30%30.40 "Hg1 mi
11:53 am58 °FSunny.7 mph33%30.43 "Hg2 mi
10:53 am56 °FSunny.5 mph37%30.45 "Hg2 mi
9:53 am52 °FSunny.5 mph47%30.45 "Hg2 mi
8:53 am47 °FSunny.No wind61%30.45 "Hg2 mi
7:53 am43 °FSunny.5 mph74%30.43 "Hg2 mi
7:20 am39 °FSunny.No wind82%30.43 "Hg2 mi
7:11 am39 °FSunny.No wind82%30.42 "Hg2 mi
6:53 am38 °FSunny.No wind86%30.42 "Hg2 mi
6:06 am36 °FClear.No wind89%30.41 "Hg2 mi
4:53 am38 °FClear.No wind83%30.40 "Hg4 mi
3:53 am38 °FClear.No wind76%30.39 "Hg4 mi
Weather by CustomWeather, © 2018

See weather overview